Weather History for Watertown, SD

Change the Weather History Date:

Thursday, January 3, 2013

  Actual Average Record
Temperature  
Mean Temperature 13 °F 13 °F  
Max Temperature 21 °F 22 °F 45 °F (1962)
Min Temperature 4 °F 4 °F -30 °F (1919)
Degree Days  
Heating Degree Days 52 52  
Month to date heating degree days 155 156  
Since 1 July heating degree days 3512 3615  
Cooling Degree Days 0 0  
Month to date cooling degree days 0 0  
Year to date cooling degree days 0 0  
Moisture  
Dew Point 9 °F    
Average Humidity 86    
Maximum Humidity 92    
Minimum Humidity 80    
Precipitation  
Precipitation 0.00 in 0.02 in 0.35 in (1943)
Month to date precipitation T 0.05  
Year to date precipitation T 0.05  
Snow  
Snow 0.00 in - - ()
Month to date snowfall T  
Since 1 July snowfall 10.7  
Snow Depth 7.00 in    
Sea Level Pressure  
Sea Level Pressure 30.27 in    
Wind  
Wind Speed 12 mph (West)    
Max Wind Speed 21 mph    
Max Gust Speed 24 mph    
Visibility 10 miles    
Events      
T = Trace of Precipitation, MM = Missing Value Source: NWS Daily Summary

Daily Weather History Graph

Daily Weather History Graph

Search for Another Location

Airport:

Trip Planner

Search our weather history database for the weather conditions in past years. The results will help you decide how hot, cold, wet, or windy it might be!

Date:

Astronomy

Jan. 03, 2013 Rise Set
Actual Time 8:06 AM CST 5:00 PM CST
Civil Twilight 7:33 AM CST 5:33 PM CST
Nautical Twilight 6:56 AM CST 6:10 PM CST
Astronomical Twilight 6:20 AM CST 6:46 PM CST
Moon 11:56 PM CST (1/3) 11:01 AM CST (1/3)
Length of Visible Light 10h 00m
Length of Day
8h 53m
Waning Gibbous, 65% of the Moon is Illuminated
Jan 3
Waning Gibbous
Jan 4
Last Quarter
Jan 11
New
Jan 18
First Quarter
Jan 26
Full

Hourly Weather History & Observations

Time (CST) Temp. Windchill Dew Point Humidity Pressure Visibility Wind Dir Wind Speed Gust Speed Precip Events Conditions
12:53 AM 6.1 °F -11.6 °F 1.9 °F 83% 30.28 in 10.0 mi NNW 15.0 mph - N/A   Scattered Clouds
1:04 AM 6.8 °F -11.8 °F 3.2 °F 85% 30.19 in 10.0 mi NNW 17.3 mph 24.2 mph N/A   Mostly Cloudy
1:53 AM 7.0 °F -9.8 °F 3.0 °F 84% 30.30 in 5.0 mi NW 13.8 mph - N/A   Overcast
2:40 AM 5.0 °F -12.3 °F 1.4 °F 85% 30.22 in 10.0 mi NW 13.8 mph - N/A   Scattered Clouds
2:53 AM 5.0 °F -11.6 °F 1.9 °F 87% 30.31 in 10.0 mi NNW 12.7 mph - N/A   Clear
3:53 AM 3.9 °F -13.7 °F 1.0 °F 88% 30.32 in 10.0 mi NNW 13.8 mph - N/A   Clear
4:53 AM 3.9 °F -13.0 °F 1.0 °F 88% 30.34 in 10.0 mi NW 12.7 mph - N/A   Clear
5:53 AM 3.9 °F -12.2 °F 1.0 °F 88% 30.35 in 10.0 mi NW 11.5 mph - N/A   Scattered Clouds
6:02 AM 5.0 °F -10.0 °F 1.4 °F 85% 30.24 in 10.0 mi NNW 10.4 mph - N/A   Mostly Cloudy
6:53 AM 9.0 °F -5.9 °F 6.1 °F 88% 30.34 in 10.0 mi NW 11.5 mph - N/A   Overcast
7:53 AM 10.9 °F -2.6 °F 8.1 °F 88% 30.34 in 10.0 mi NW 10.4 mph - N/A   Overcast
8:53 AM 12.0 °F 2.7 °F 8.1 °F 84% 30.35 in 8.0 mi NW 5.8 mph - N/A   Overcast
9:53 AM 12.9 °F 3.8 °F 10.0 °F 88% 30.36 in 5.0 mi WNW 5.8 mph - N/A   Overcast
10:53 AM 16.0 °F 7.4 °F 12.0 °F 84% 30.36 in 10.0 mi West 5.8 mph - N/A   Overcast
11:29 AM 15.8 °F 4.2 °F 12.2 °F 86% 30.23 in 10.0 mi West 9.2 mph - N/A   Overcast
11:53 AM 17.1 °F 5.0 °F 12.0 °F 81% 30.32 in 10.0 mi West 10.4 mph - N/A   Scattered Clouds
12:53 PM 16.0 °F 3.6 °F 12.0 °F 84% 30.30 in 10.0 mi WSW 10.4 mph - N/A   Clear
1:53 PM 17.1 °F 3.6 °F 12.9 °F 84% 30.29 in 10.0 mi WSW 12.7 mph - N/A   Clear
2:53 PM 18.0 °F 4.2 °F 14.0 °F 84% 30.28 in 10.0 mi SW 13.8 mph - N/A   Clear
3:16 PM 17.6 °F 5.0 °F 14.0 °F 86% 30.17 in 10.0 mi WSW 11.5 mph - N/A   Mostly Cloudy
3:41 PM 17.6 °F 5.0 °F 14.0 °F 86% 30.17 in 10.0 mi SW 11.5 mph - N/A   Scattered Clouds
3:53 PM 18.0 °F 6.1 °F 14.0 °F 84% 30.28 in 10.0 mi WSW 10.4 mph - N/A   Clear
4:53 PM 15.1 °F 3.3 °F 12.0 °F 88% 30.29 in 10.0 mi SW 9.2 mph - N/A   Clear
5:53 PM 12.0 °F -0.4 °F 10.0 °F 92% 30.28 in 10.0 mi SW 9.2 mph - N/A   Clear
6:53 PM 15.1 °F 1.1 °F 12.0 °F 88% 30.24 in 10.0 mi SW 12.7 mph - N/A   Clear
7:53 PM 16.0 °F 2.3 °F 12.9 °F 88% 30.22 in 10.0 mi SW 12.7 mph - N/A   Clear
8:53 PM 16.0 °F 2.3 °F 12.9 °F 88% 30.20 in 10.0 mi SW 12.7 mph - N/A   Clear
9:53 PM 18.0 °F 5.4 °F 12.9 °F 81% 30.18 in 10.0 mi WSW 11.5 mph - N/A   Clear
10:53 PM 18.0 °F 2.6 °F 12.9 °F 81% 30.16 in 10.0 mi SW 17.3 mph - N/A   Clear
11:53 PM 19.9 °F 6.7 °F 14.0 °F 78% 30.14 in 10.0 mi WSW 13.8 mph - N/A   Clear